[[[{"header":{"parameterUnit":"kt","parameterCategory":2,"dx":1,"dy":1,"la1":30.253999710083008,"la2":30.299108505249023,"lo1":-89.0895004272461,"lo2":-89.04439544677734,"nx":28,"ny":28,"refTime":"2022-10-10T21:00:00:Z","depth":"0","parameterNumber":2,"parameterNumberName":"U-component_of_CURRENTS"},"data":[-0.2637,-0.2572,-0.2569,-0.2459,-0.2473,-0.2439,-0.2456,-0.2417,-0.2348,-0.2043,-0.1797,-0.1597,-0.1388,-0.1226,-0.105,-0.1021,-0.1067,-0.0993,-0.1105,-0.1289,-0.1339,-0.1387,-0.1338,-0.0915,-0.0915,-0.0839,-0.0838,-0.0838,-0.272,-0.2715,-0.2714,-0.2716,-0.2685,-0.2758,-0.2828,-0.2799,-0.2777,-0.2704,-0.2601,-0.2183,-0.1862,-0.1684,-0.138,-0.1284,-0.1328,-0.1295,-0.136,-0.137,-0.1573,-0.1516,-0.1124,-0.1124,-0.1124,-0.1124,-0.1124,-0.1124,-0.2872,-0.2857,-0.2878,-0.2876,-0.2911,-0.2921,-0.2922,-0.2998,-0.3009,-0.3003,-0.303,-0.2827,-0.2547,-0.2146,-0.2058,-0.1812,-0.1959,-0.1752,-0.1809,-0.1866,-0.1779,-0.2011,-0.1719,-0.1722,-0.1724,-0.1725,-0.1727,0,-0.298,-0.3005,-0.3019,-0.3037,-0.3058,-0.3085,-0.3134,-0.3166,-0.3282,-0.3295,-0.3283,-0.3208,-0.3009,-0.2704,-0.2466,-0.2368,-0.2399,-0.2364,-0.2356,-0.2125,-0.2135,-0.2095,-0.2462,-0.2224,-0.223,-0.2233,-0.2236,-0.2238,-0.3107,-0.3099,-0.3164,-0.3169,-0.3192,-0.3209,-0.3234,-0.3323,-0.3356,-0.3434,-0.3442,-0.3386,-0.33,-0.3091,-0.2917,-0.2725,-0.2763,-0.2497,-0.2496,-0.2455,-0.2485,-0.2533,-0.2512,-0.2295,-0.2288,-0.2282,-0.2277,0,-0.317,-0.3225,-0.3232,-0.3297,-0.3315,-0.3306,-0.3376,-0.3382,-0.3437,-0.3458,-0.3462,-0.3502,-0.3415,-0.3361,-0.3263,-0.3184,-0.297,-0.2978,-0.2839,-0.2792,-0.2541,-0.2583,-0.2382,-0.233,-0.2732,-0.2727,-0.2723,0,-0.3288,-0.3284,-0.3364,-0.336,-0.3361,-0.3429,-0.3424,-0.3458,-0.3496,-0.351,-0.3535,-0.3528,-0.3509,-0.3454,-0.3402,-0.3236,-0.3304,-0.3127,-0.3099,-0.2982,-0.296,-0.287,-0.2902,-0.3268,-0.3269,-0.327,-0.327,0,-0.335,-0.3413,-0.3412,-0.343,-0.3501,-0.35,-0.3527,-0.3556,-0.3571,-0.3572,-0.3581,-0.3546,-0.3534,-0.3473,-0.3428,-0.3455,-0.3334,-0.3365,-0.3165,-0.3155,-0.2962,-0.2936,-0.28,-0.3271,-0.3271,-0.3272,-0.3272,0,-0.3446,-0.3473,-0.3489,-0.3534,-0.3544,-0.3563,-0.357,-0.3598,-0.3609,-0.3617,-0.3598,-0.3594,-0.3563,-0.3566,-0.3491,-0.3523,-0.3471,-0.3445,-0.3441,-0.325,-0.3249,-0.2996,-0.2927,-0.2885,-0.3403,-0.3404,-0.3405,0,-0.3472,-0.3506,-0.3552,-0.3571,-0.3584,-0.3622,-0.3645,-0.366,-0.3668,-0.366,-0.3644,-0.3629,-0.3634,-0.3617,-0.3588,-0.356,-0.3512,-0.3563,-0.3433,-0.3429,-0.3259,-0.3238,-0.3074,-0.2962,-0.3421,-0.3419,-0.3418,0,-0.3486,-0.3559,-0.3556,-0.3558,-0.3611,-0.363,-0.3661,-0.3668,-0.3654,-0.3675,-0.3643,-0.3654,-0.3632,-0.3615,-0.3601,-0.3567,-0.3538,-0.3549,-0.3545,-0.3486,-0.344,-0.3281,-0.3255,-0.3526,-0.3525,-0.3523,-0.343,0,-0.3514,-0.3536,-0.3559,-0.3584,-0.3612,-0.3634,-0.366,-0.3675,-0.3666,-0.3654,-0.365,-0.3643,-0.3607,-0.3627,-0.3609,-0.3584,-0.3565,-0.3559,-0.3489,-0.3527,-0.3488,-0.3478,-0.3573,-0.3571,-0.357,-0.357,0,0,-0.3486,-0.351,-0.3544,-0.357,-0.3576,-0.3589,-0.3603,-0.3614,-0.3618,-0.3601,-0.3602,-0.3578,-0.3566,-0.3539,-0.356,-0.3577,-0.3541,-0.352,-0.3533,-0.3529,-0.3525,-0.3487,-0.3479,-0.3568,-0.3568,-0.3567,-0.3567,0,-0.3484,-0.3508,-0.353,-0.3553,-0.3573,-0.3573,-0.3587,-0.3593,-0.3575,-0.3595,-0.3548,-0.3546,-0.3546,-0.351,-0.3494,-0.3564,-0.3487,-0.3577,-0.3568,-0.3527,-0.3524,-0.3522,-0.3485,-0.3478,-0.3564,-0.3565,-0.3565,0,-0.3457,-0.3473,-0.3486,-0.3525,-0.3522,-0.3544,-0.3509,-0.3531,-0.353,-0.3476,-0.3467,-0.3461,-0.3432,-0.3445,-0.3449,-0.3417,-0.3423,-0.3445,-0.3451,-0.3416,-0.3368,-0.3367,-0.3366,-0.3364,-0.3363,-0.3362,0,0,-0.3448,-0.3474,-0.3494,-0.3522,-0.3535,-0.3515,-0.3519,-0.3499,-0.349,-0.3476,-0.3445,-0.3418,-0.3412,-0.3398,-0.3397,-0.3414,-0.3364,-0.3421,-0.343,-0.3438,-0.3407,-0.3362,-0.3362,-0.336,-0.336,-0.3359,0,0,-0.3436,-0.346,-0.3441,-0.3483,-0.3497,-0.3487,-0.3494,-0.3471,-0.3453,-0.3432,-0.3377,-0.3367,-0.3385,-0.3362,-0.3334,-0.3359,-0.3321,-0.3327,-0.3357,-0.3369,-0.3378,-0.3337,-0.3253,0,0,0,0,0,-0.3427,-0.3466,-0.345,-0.3456,-0.3466,-0.3502,-0.35,-0.3456,-0.3413,-0.3427,-0.3391,-0.3339,-0.3335,-0.3309,-0.3306,-0.3314,-0.3326,-0.3332,-0.3338,-0.3384,-0.3397,-0.3407,0,0,0,0,0,0,-0.343,-0.3439,-0.3449,-0.3446,-0.3448,-0.35,-0.3426,-0.3414,-0.341,-0.34,-0.3348,-0.3338,-0.3294,-0.3307,-0.3304,-0.3313,-0.3253,-0.3329,-0.3334,-0.3338,-0.3388,-0.3399,-0.3407,0,0,0,0,0,-0.3432,-0.3439,-0.347,-0.3443,-0.3445,-0.3405,-0.3423,-0.3413,-0.3398,-0.3355,-0.3342,-0.3367,-0.3297,-0.3291,-0.3305,-0.3315,-0.3254,-0.3254,-0.3332,-0.3336,-0.3339,-0.3393,0,0,0,0,0,0,-0.3433,-0.3413,-0.3468,-0.3467,-0.3422,-0.34,-0.3396,-0.3412,-0.335,-0.3341,-0.3371,-0.3364,-0.3299,-0.3294,-0.329,-0.3318,-0.3255,-0.3255,-0.3254,-0.3335,-0.3338,-0.3341,0,0,0,0,0,0,-0.341,-0.3412,-0.3467,-0.3442,-0.3437,-0.3396,-0.3393,-0.3396,-0.335,-0.3367,-0.3361,-0.3368,-0.3306,-0.3297,-0.3293,-0.33,-0.3256,-0.3255,-0.3255,-0.3255,-0.3337,-0.334,0,0,0,0,0,0,-0.341,-0.3412,-0.3442,-0.3438,-0.3433,-0.3405,-0.3396,-0.3403,-0.3345,-0.337,-0.3338,-0.3335,-0.331,-0.3305,-0.3296,-0.3305,-0.3301,-0.3256,-0.3256,-0.3255,-0.3255,0,0,0,0,0,0,0,-0.341,-0.3411,-0.3487,-0.3434,-0.343,-0.3454,-0.3452,-0.3451,-0.3344,-0.3341,-0.3339,-0.3336,-0.3259,-0.3259,-0.3258,-0.3309,0,0,-0.3256,-0.3256,0,0,0,0,0,0,0,0,-0.3408,-0.341,-0.3487,-0.3487,-0.3487,-0.3453,-0.3452,-0.3451,-0.3344,-0.3341,-0.3339,-0.3337,-0.3259,-0.3258,-0.3258,0,0,0,0,0,0,0,0,0,0,0,0,0,0,0,-0.3487,-0.3487,0,-0.3453,-0.3452,-0.3451,-0.3343,-0.3341,-0.334,-0.3338,-0.3259,-0.3258,-0.3258,0,0,0,0,0,0,0,0,0,0,0,0,0,0,0,0,0,0,0,0,0,0,0,0,0,0,0,0,0,0,0,0,0,0,0,0,0,0,0,0,0,0,0,0,0,0,0,0,0,0,0,0,0,0,0,0,0,0,0,0,0,0,0,0,0,0,0,0,0]}],[{"header":{"parameterUnit":"kt","parameterCategory":2,"dx":1,"dy":1,"la1":30.253999710083008,"la2":30.299108505249023,"lo1":-89.0895004272461,"lo2":-89.04439544677734,"nx":28,"ny":28,"refTime":"2022-10-10T21:00:00:Z","depth":"0","parameterNumber":3,"parameterNumberName":"V-component_of_CURRENTS"},"data":[-0.134,-0.1428,-0.1472,-0.1544,-0.1578,-0.1501,-0.1396,-0.0982,-0.0632,0.0032,0.0492,0.0822,0.11,0.1227,0.139,0.1399,0.1471,0.1456,0.1535,0.1322,0.1294,0.1267,0.1258,0.1538,0.1538,0.1721,0.1723,0.1724,-0.1316,-0.1377,-0.1455,-0.1516,-0.1551,-0.1551,-0.1444,-0.1253,-0.0931,-0.0576,-0.0181,0.034,0.0643,0.0882,0.1095,0.1197,0.1172,0.1239,0.1177,0.1213,0.0984,0.0968,0.1191,0.1191,0.1191,0.1191,0.1191,0.1191,-0.1269,-0.1326,-0.1383,-0.1449,-0.1484,-0.1485,-0.1428,-0.1303,-0.1142,-0.0772,-0.0622,-0.0134,0.0159,0.0606,0.0739,0.0926,0.0881,0.095,0.0968,0.0946,0.1,0.0744,0.0943,0.0943,0.0942,0.0942,0.0942,0,-0.123,-0.1247,-0.1287,-0.1367,-0.1394,-0.141,-0.1388,-0.1364,-0.1222,-0.1062,-0.0757,-0.0523,-0.0128,0.0215,0.0509,0.0636,0.0651,0.0665,0.0735,0.0718,0.0713,0.0794,0.0468,0.0615,0.0613,0.0611,0.061,0.0609,-0.1168,-0.1199,-0.1239,-0.1273,-0.1275,-0.1293,-0.1297,-0.1224,-0.1184,-0.0968,-0.0915,-0.0654,-0.0393,0.0008,0.0216,0.0475,0.0517,0.0608,0.054,0.0616,0.0665,0.0646,0.069,0.0587,0.059,0.0592,0.0594,0,-0.1136,-0.1133,-0.1172,-0.1171,-0.1173,-0.1197,-0.1162,-0.1152,-0.1066,-0.0981,-0.0952,-0.0737,-0.0484,-0.029,-0.0047,0.0064,0.0329,0.0352,0.0341,0.0381,0.0578,0.0594,0.0773,0.0845,0.0542,0.0545,0.0548,0,-0.1071,-0.1091,-0.1088,-0.1106,-0.1138,-0.1084,-0.1084,-0.1041,-0.0964,-0.0904,-0.0799,-0.0692,-0.0524,-0.0351,-0.0215,0.0038,0.0004,0.0168,0.0212,0.0195,0.0203,0.0304,0.0324,0.0091,0.009,0.0089,0.0088,0,-0.101,-0.1018,-0.1049,-0.1044,-0.1016,-0.101,-0.0987,-0.0912,-0.0884,-0.0792,-0.0751,-0.0622,-0.0529,-0.0414,-0.0207,-0.0241,0.0002,-0.0025,0.0154,0.0162,0.0209,0.0219,0.0353,0.0086,0.0086,0.0086,0.0085,0,-0.0939,-0.0956,-0.0987,-0.0967,-0.0964,-0.0956,-0.0911,-0.0883,-0.0789,-0.0742,-0.0658,-0.0579,-0.0465,-0.0431,-0.0243,-0.0291,-0.0191,-0.0108,-0.01,0.0007,0.0042,0.0166,0.0227,0.0302,0.0007,0.0005,0.0004,0,-0.0886,-0.0919,-0.0885,-0.0899,-0.0909,-0.0846,-0.0824,-0.0772,-0.0714,-0.0663,-0.0559,-0.0499,-0.0436,-0.0399,-0.0336,-0.0224,-0.0166,-0.0229,-0.0073,-0.0068,0.0008,0.0051,0.0054,0.02,-0.0013,-0.0011,-0.001,0,-0.0839,-0.0823,-0.0825,-0.0826,-0.0784,-0.0776,-0.0748,-0.0703,-0.0682,-0.0613,-0.0573,-0.0467,-0.0418,-0.0371,-0.03,-0.0248,-0.0187,-0.0219,-0.0215,-0.016,-0.0073,0.0018,0.0039,-0.0182,-0.0181,-0.018,-0.0023,0,-0.0766,-0.0773,-0.0782,-0.0769,-0.075,-0.0749,-0.0693,-0.067,-0.0629,-0.0582,-0.0514,-0.0428,-0.0355,-0.0322,-0.0275,-0.0223,-0.0199,-0.0192,-0.0174,-0.0177,-0.0105,-0.0094,-0.0202,-0.0201,-0.02,-0.02,0,0,-0.0717,-0.0732,-0.0702,-0.0706,-0.0693,-0.0636,-0.0642,-0.0606,-0.0547,-0.0523,-0.0503,-0.0383,-0.0323,-0.0251,-0.0242,-0.0216,-0.0181,-0.0214,-0.0178,-0.0176,-0.0174,-0.0107,-0.0098,-0.0198,-0.0198,-0.0198,-0.0198,0,-0.069,-0.0683,-0.0701,-0.0681,-0.065,-0.0617,-0.0616,-0.0569,-0.0541,-0.0504,-0.0443,-0.0386,-0.0318,-0.0257,-0.0218,-0.0211,-0.0162,-0.0199,-0.022,-0.0174,-0.0173,-0.0172,-0.0105,-0.0098,-0.0196,-0.0196,-0.0196,0,-0.0646,-0.0632,-0.0639,-0.0619,-0.0594,-0.0583,-0.0541,-0.0527,-0.051,-0.044,-0.0407,-0.0353,-0.0283,-0.024,-0.0217,-0.0207,-0.0142,-0.0168,-0.0171,-0.0175,-0.0126,-0.0125,-0.0124,-0.0135,-0.0135,-0.0135,0,0,-0.0625,-0.0636,-0.0596,-0.0609,-0.0598,-0.0551,-0.0536,-0.0509,-0.0466,-0.0448,-0.0397,-0.0342,-0.0289,-0.026,-0.0215,-0.0179,-0.0141,-0.0163,-0.0166,-0.0169,-0.0174,-0.0126,-0.0126,-0.0135,-0.0135,-0.0135,0,0,-0.0608,-0.0582,-0.0566,-0.0582,-0.0552,-0.0502,-0.0501,-0.0471,-0.0431,-0.0425,-0.0359,-0.0342,-0.03,-0.0264,-0.0273,-0.0205,-0.019,-0.0187,-0.023,-0.0233,-0.0236,-0.0254,-0.023,0,0,0,0,0,-0.0564,-0.0587,-0.0574,-0.0571,-0.0538,-0.0512,-0.0504,-0.0464,-0.0445,-0.0446,-0.0392,-0.0361,-0.0253,-0.026,-0.0247,-0.0236,-0.0137,-0.0137,-0.0136,-0.0183,-0.0187,-0.019,0,0,0,0,0,0,-0.0562,-0.056,-0.0572,-0.0529,-0.052,-0.0511,-0.0475,-0.0464,-0.0445,-0.0439,-0.0372,-0.0359,-0.0315,-0.0264,-0.0252,-0.0244,-0.0234,-0.0137,-0.0137,-0.0136,-0.0185,-0.0187,-0.019,0,0,0,0,0,-0.0561,-0.0559,-0.0524,-0.0527,-0.0519,-0.0468,-0.0474,-0.0465,-0.0449,-0.0381,-0.0368,-0.042,-0.0316,-0.0302,-0.0257,-0.025,-0.0241,-0.0237,-0.0137,-0.0136,-0.0136,-0.0186,0,0,0,0,0,0,-0.056,-0.0544,-0.0521,-0.0516,-0.0522,-0.0467,-0.0461,-0.0466,-0.0391,-0.0379,-0.0426,-0.0423,-0.0317,-0.0306,-0.0296,-0.0255,-0.0247,-0.0243,-0.0241,-0.0136,-0.0136,-0.0136,0,0,0,0,0,0,-0.0544,-0.0541,-0.0518,-0.0515,-0.0509,-0.0467,-0.0461,-0.0421,-0.0389,-0.044,-0.0435,-0.0425,-0.0323,-0.0309,-0.0301,-0.024,-0.0252,-0.0248,-0.0245,-0.0244,-0.0136,-0.0136,0,0,0,0,0,0,-0.0541,-0.0538,-0.0516,-0.0512,-0.0507,-0.0445,-0.0428,-0.0392,-0.0405,-0.0443,-0.0403,-0.0402,-0.0327,-0.0318,-0.0305,-0.0248,-0.0242,-0.0252,-0.0249,-0.0247,-0.0246,0,0,0,0,0,0,0,-0.0539,-0.058,-0.0552,-0.0509,-0.0504,-0.0468,-0.0466,-0.0465,-0.0405,-0.0404,-0.0403,-0.0403,-0.0275,-0.027,-0.0266,-0.0254,0,0,-0.0252,-0.025,0,0,0,0,0,0,0,0,-0.0579,-0.058,-0.0551,-0.055,-0.0549,-0.0467,-0.0466,-0.0465,-0.0405,-0.0404,-0.0404,-0.0403,-0.0274,-0.027,-0.0266,0,0,0,0,0,0,0,0,0,0,0,0,0,0,0,-0.0551,-0.055,0,-0.0467,-0.0466,-0.0465,-0.0405,-0.0404,-0.0404,-0.0403,-0.0273,-0.027,-0.0267,0,0,0,0,0,0,0,0,0,0,0,0,0,0,0,0,0,0,0,0,0,0,0,0,0,0,0,0,0,0,0,0,0,0,0,0,0,0,0,0,0,0,0,0,0,0,0,0,0,0,0,0,0,0,0,0,0,0,0,0,0,0,0,0,0,0,0,0,0]}]],[[{"header":{"parameterUnit":"kt","parameterCategory":2,"dx":1,"dy":1,"la1":30.253999710083008,"la2":30.299108505249023,"lo1":-89.0895004272461,"lo2":-89.04439544677734,"nx":28,"ny":28,"refTime":"2022-10-10T21:00:00:Z","depth":"2","parameterNumber":2,"parameterNumberName":"U-component_of_CURRENTS"},"data":[-0.2225,-0.2164,-0.2157,-0.2016,-0.2005,-0.1827,-0.1752,-0.1548,-0.1424,-0.1155,-0.1004,-0.1048,-0.1124,-0.0815,-0.0802,-0.066,-0.0894,-0.0641,-0.1171,-0.1295,-0.1341,-0.1509,-0.1461,0,0,0,0,0,-0.2302,-0.2297,-0.2299,-0.2287,-0.2241,-0.2314,-0.2294,-0.2149,-0.1998,-0.1945,-0.1807,-0.1489,-0.1287,-0.1272,-0.1031,-0.1003,-0.1063,-0.1002,-0.1069,-0.1122,-0.1171,-0.1104,-0.0645,-0.0643,-0.0642,-0.064,0,0,-0.2441,-0.2429,-0.2452,-0.2456,-0.2493,-0.2477,-0.2414,-0.2458,-0.2425,-0.2315,-0.2419,-0.218,-0.2147,-0.169,-0.1588,-0.1518,-0.1678,-0.1619,-0.1642,-0.1671,-0.1624,-0.1594,-0.1306,-0.1309,-0.1311,-0.1314,-0.1315,0,-0.2537,-0.2565,-0.2581,-0.2606,-0.2633,-0.2659,-0.2703,-0.2714,-0.2807,-0.2804,-0.2753,-0.2677,-0.2521,-0.2229,-0.2052,-0.1967,-0.2117,-0.1966,-0.2403,-0.1999,-0.1978,-0.1974,-0.2008,-0.1771,-0.1776,-0.178,-0.1783,-0.1786,-0.2653,-0.2648,-0.2717,-0.2727,-0.2754,-0.2785,-0.2812,-0.2906,-0.2927,-0.2984,-0.2975,-0.2931,-0.2834,-0.2661,-0.2516,-0.2356,-0.2501,-0.2103,-0.2096,-0.2493,-0.2484,-0.2501,-0.2516,-0.1845,-0.1838,-0.1831,-0.1826,0,-0.2712,-0.2764,-0.2775,-0.2844,-0.2866,-0.2868,-0.2945,-0.2957,-0.302,-0.3029,-0.3036,-0.3074,-0.2989,-0.2957,-0.2865,-0.2791,-0.2678,-0.2602,-0.2418,-0.2367,-0.2542,-0.255,-0.2381,-0.2375,-0.237,-0.2365,-0.2362,0,-0.282,-0.282,-0.2898,-0.2897,-0.2909,-0.2976,-0.2985,-0.3024,-0.3071,-0.3076,-0.3122,-0.3105,-0.31,-0.3048,-0.3,-0.2842,-0.2905,-0.2739,-0.271,-0.2556,-0.2532,-0.2891,-0.2895,-0.2869,-0.287,-0.2871,-0.2871,0,-0.2878,-0.2936,-0.2939,-0.2956,-0.3027,-0.3034,-0.3065,-0.3104,-0.3124,-0.3142,-0.3156,-0.3132,-0.3121,-0.3068,-0.302,-0.3044,-0.2931,-0.2957,-0.2771,-0.2761,-0.2539,-0.2511,-0.2872,-0.2872,-0.2873,-0.2873,-0.2873,0,-0.2963,-0.2988,-0.3005,-0.3051,-0.3061,-0.3083,-0.3105,-0.3134,-0.3158,-0.3172,-0.3166,-0.3168,-0.3142,-0.3145,-0.3073,-0.3104,-0.3053,-0.3027,-0.3022,-0.285,-0.2843,-0.2555,-0.2483,-0.2974,-0.2976,-0.2977,-0.2978,0,-0.299,-0.3018,-0.3059,-0.3081,-0.3093,-0.3133,-0.3159,-0.318,-0.3196,-0.32,-0.3191,-0.3186,-0.3187,-0.3178,-0.3154,-0.3126,-0.3083,-0.3131,-0.3009,-0.3005,-0.2852,-0.2836,-0.2633,-0.2517,-0.2992,-0.299,-0.2989,0,-0.3003,-0.3066,-0.3064,-0.3068,-0.3118,-0.3137,-0.317,-0.3183,-0.3179,-0.3204,-0.3185,-0.3198,-0.3184,-0.317,-0.3158,-0.3131,-0.3105,-0.3114,-0.3111,-0.3051,-0.3019,-0.2875,-0.2851,-0.3099,-0.3098,-0.3097,-0.3,0,-0.3027,-0.3047,-0.3068,-0.3089,-0.3117,-0.3139,-0.3165,-0.3184,-0.3183,-0.3177,-0.3183,-0.3178,-0.3154,-0.3171,-0.3155,-0.3138,-0.3119,-0.3115,-0.3051,-0.3089,-0.3046,-0.3038,-0.3121,-0.3119,-0.3118,-0.3118,0,0,-0.3005,-0.3024,-0.3054,-0.3076,-0.3084,-0.31,-0.3114,-0.3126,-0.3135,-0.3125,-0.3127,-0.3117,-0.3107,-0.3087,-0.3108,-0.3122,-0.309,-0.3075,-0.3091,-0.3089,-0.3086,-0.3046,-0.3039,-0.3116,-0.3116,-0.3115,-0.3115,0,-0.3001,-0.3023,-0.3041,-0.3062,-0.3082,-0.3083,-0.3098,-0.3106,-0.3094,-0.3119,-0.3078,-0.3081,-0.3087,-0.3056,-0.3043,-0.3109,-0.304,-0.3122,-0.312,-0.3085,-0.3084,-0.3082,-0.3043,-0.3038,-0.3113,-0.3113,-0.3113,0,-0.2977,-0.2989,-0.3001,-0.3035,-0.3034,-0.3055,-0.3025,-0.3048,-0.305,-0.3005,-0.3004,-0.3001,-0.2977,-0.2992,-0.2999,-0.297,-0.298,-0.3,-0.3006,-0.2976,-0.2935,-0.2936,-0.2936,-0.2923,-0.2922,-0.2921,0,0,-0.2967,-0.2989,-0.3006,-0.3032,-0.3044,-0.303,-0.3035,-0.302,-0.3014,-0.3005,-0.2981,-0.2961,-0.2958,-0.2948,-0.2949,-0.2969,-0.2923,-0.2977,-0.2986,-0.2994,-0.2968,-0.293,-0.2931,-0.2919,-0.2919,-0.2919,0,0,-0.2956,-0.2974,-0.2959,-0.2995,-0.3009,-0.3002,-0.3011,-0.2993,-0.2983,-0.2967,-0.2919,-0.2912,-0.2933,-0.2912,-0.2886,-0.2915,-0.2879,-0.2884,-0.2914,-0.2925,-0.2934,-0.29,-0.2813,0,0,0,0,0,-0.2945,-0.2979,-0.2966,-0.2972,-0.2982,-0.3015,-0.3013,-0.2978,-0.2943,-0.2958,-0.2929,-0.2883,-0.2887,-0.2863,-0.2861,-0.2872,-0.2888,-0.2894,-0.2899,-0.2944,-0.2956,-0.2966,0,0,0,0,0,0,-0.2948,-0.2955,-0.2965,-0.2963,-0.2965,-0.3012,-0.2948,-0.2939,-0.294,-0.2931,-0.2891,-0.2882,-0.2844,-0.2861,-0.286,-0.2871,-0.2813,-0.289,-0.2895,-0.2899,-0.2948,-0.2958,-0.2966,0,0,0,0,0,-0.2949,-0.2955,-0.2983,-0.2961,-0.2963,-0.2931,-0.2946,-0.2937,-0.293,-0.2892,-0.2882,-0.2904,-0.2846,-0.2842,-0.286,-0.2872,-0.2814,-0.2814,-0.2893,-0.2897,-0.29,-0.2953,0,0,0,0,0,0,-0.2951,-0.2935,-0.2982,-0.2981,-0.2942,-0.2927,-0.2924,-0.2936,-0.2888,-0.288,-0.2903,-0.2897,-0.2848,-0.2844,-0.2842,-0.2875,-0.2814,-0.2814,-0.2814,-0.2896,-0.2899,-0.2901,0,0,0,0,0,0,-0.2932,-0.2934,-0.2981,-0.2959,-0.2955,-0.2923,-0.2921,-0.2927,-0.2888,-0.29,-0.2894,-0.2901,-0.2853,-0.2847,-0.2844,-0.2855,-0.2814,-0.2814,-0.2814,-0.2814,-0.2898,-0.2901,0,0,0,0,0,0,-0.2932,-0.2934,-0.2959,-0.2956,-0.2952,-0.2932,-0.2926,-0.2934,-0.2882,-0.2902,-0.2876,-0.2873,-0.2856,-0.2852,-0.2846,-0.2858,-0.2856,-0.2814,-0.2814,-0.2814,-0.2814,0,0,0,0,0,0,0,-0.2932,-0.2931,-0.2996,-0.2953,-0.2949,-0.2973,-0.2972,-0.2971,-0.2882,-0.2879,-0.2877,-0.2875,-0.2815,-0.2815,-0.2815,-0.2861,0,0,-0.2814,-0.2814,0,0,0,0,0,0,0,0,-0.2929,-0.293,-0.2996,-0.2996,-0.2996,-0.2973,-0.2972,-0.2971,-0.2881,-0.2879,-0.2877,-0.2876,-0.2815,-0.2815,-0.2815,0,0,0,0,0,0,0,0,0,0,0,0,0,0,0,-0.2996,-0.2996,0,-0.2973,-0.2972,-0.2971,-0.2881,-0.2879,-0.2878,-0.2876,-0.2815,-0.2815,-0.2815,0,0,0,0,0,0,0,0,0,0,0,0,0,0,0,0,0,0,0,0,0,0,0,0,0,0,0,0,0,0,0,0,0,0,0,0,0,0,0,0,0,0,0,0,0,0,0,0,0,0,0,0,0,0,0,0,0,0,0,0,0,0,0,0,0,0,0,0,0]}],[{"header":{"parameterUnit":"kt","parameterCategory":2,"dx":1,"dy":1,"la1":30.253999710083008,"la2":30.299108505249023,"lo1":-89.0895004272461,"lo2":-89.04439544677734,"nx":28,"ny":28,"refTime":"2022-10-10T21:00:00:Z","depth":"2","parameterNumber":3,"parameterNumberName":"V-component_of_CURRENTS"},"data":[-0.1349,-0.1435,-0.1477,-0.1581,-0.1631,-0.1667,-0.1653,-0.1588,-0.1448,-0.1248,-0.1023,-0.08,-0.0376,-0.0155,0.0085,0.0275,0.0258,0.0276,0.0265,0.0134,0.0126,0.0286,0.021,0,0,0,0,0,-0.1322,-0.138,-0.1455,-0.1529,-0.1583,-0.1583,-0.1573,-0.1547,-0.1463,-0.1277,-0.1095,-0.074,-0.0406,-0.0085,0.0252,0.0434,0.0401,0.0445,0.0365,0.0358,0.0353,0.031,0.0414,0.0415,0.0415,0.0416,0,0,-0.1274,-0.1326,-0.1382,-0.1447,-0.1489,-0.152,-0.1523,-0.1485,-0.1419,-0.1265,-0.1095,-0.0828,-0.0537,-0.0066,0.0164,0.0366,0.0352,0.0373,0.0368,0.0362,0.0323,0.0296,0.0428,0.0429,0.0429,0.0429,0.043,0,-0.1236,-0.1251,-0.1287,-0.1366,-0.1396,-0.1419,-0.141,-0.1403,-0.1295,-0.1208,-0.1037,-0.0883,-0.0517,-0.0223,0.0097,0.0226,0.025,0.0317,0.0301,0.0181,0.015,0.0167,0.0156,0.0262,0.0261,0.0261,0.0261,0.026,-0.1176,-0.1205,-0.1242,-0.1275,-0.1278,-0.1294,-0.1302,-0.1232,-0.1207,-0.1053,-0.1023,-0.0811,-0.0636,-0.0277,-0.0044,0.0211,0.0201,0.0298,0.0256,0.0203,0.0224,0.0211,0.0198,0.0255,0.0256,0.0256,0.0257,0,-0.1144,-0.1143,-0.118,-0.1178,-0.118,-0.1201,-0.117,-0.1162,-0.1083,-0.1024,-0.0996,-0.0813,-0.0607,-0.0408,-0.0175,-0.0067,0.0112,0.0182,0.0116,0.0141,0.0192,0.0182,0.0321,0.0323,0.0325,0.0327,0.0328,0,-0.1083,-0.1102,-0.1101,-0.1119,-0.1146,-0.1096,-0.1095,-0.1051,-0.0978,-0.0937,-0.0821,-0.0747,-0.0558,-0.0409,-0.0275,-0.0071,-0.0074,0.0048,0.0084,0.0035,0.0033,-0.0002,-0.0009,0.004,0.0038,0.0037,0.0037,0,-0.1024,-0.1034,-0.1064,-0.1061,-0.1035,-0.1029,-0.1007,-0.0934,-0.0909,-0.0814,-0.0779,-0.0644,-0.0568,-0.0442,-0.0271,-0.0289,-0.0078,-0.0082,0.0039,0.0042,0.0051,0.0053,0.0035,0.0035,0.0035,0.0034,0.0034,0,-0.0958,-0.0975,-0.1008,-0.0988,-0.0985,-0.098,-0.0935,-0.091,-0.0818,-0.0774,-0.0689,-0.0614,-0.0506,-0.0476,-0.0298,-0.0344,-0.0252,-0.0175,-0.0168,-0.0116,-0.0092,-0.002,0.0019,-0.0079,-0.0081,-0.0082,-0.0083,0,-0.0904,-0.094,-0.091,-0.0927,-0.0937,-0.0879,-0.086,-0.0812,-0.0758,-0.0707,-0.0609,-0.0554,-0.0502,-0.0467,-0.0402,-0.0302,-0.0242,-0.0306,-0.015,-0.0145,-0.0118,-0.0084,-0.0124,-0.0005,-0.0101,-0.0099,-0.0098,0,-0.0858,-0.0848,-0.085,-0.0853,-0.0819,-0.0812,-0.0789,-0.0747,-0.0726,-0.0665,-0.0624,-0.0535,-0.0487,-0.0446,-0.0385,-0.0329,-0.0267,-0.0304,-0.03,-0.025,-0.0145,-0.0112,-0.0097,-0.0251,-0.025,-0.0249,-0.0112,0,-0.0791,-0.0799,-0.0808,-0.0802,-0.0786,-0.0787,-0.0739,-0.0718,-0.0682,-0.064,-0.0577,-0.0502,-0.0436,-0.0411,-0.0374,-0.0319,-0.0301,-0.0289,-0.0266,-0.0266,-0.0206,-0.0195,-0.0312,-0.0311,-0.0311,-0.031,0,0,-0.0742,-0.0759,-0.0732,-0.074,-0.0729,-0.0679,-0.0687,-0.0656,-0.0607,-0.0582,-0.0569,-0.0463,-0.0413,-0.0346,-0.0344,-0.0322,-0.0287,-0.0318,-0.0274,-0.027,-0.0266,-0.0209,-0.02,-0.0309,-0.0309,-0.0309,-0.0308,0,-0.0719,-0.0712,-0.0731,-0.0715,-0.069,-0.0662,-0.0661,-0.0621,-0.0598,-0.0567,-0.0516,-0.0465,-0.0409,-0.0355,-0.0322,-0.0318,-0.027,-0.0312,-0.0326,-0.027,-0.0268,-0.0265,-0.0209,-0.02,-0.0307,-0.0307,-0.0307,0,-0.0679,-0.0669,-0.0676,-0.0659,-0.0639,-0.0632,-0.0593,-0.0582,-0.057,-0.0506,-0.0481,-0.0435,-0.0375,-0.0339,-0.032,-0.0309,-0.0248,-0.0277,-0.0279,-0.0279,-0.022,-0.0218,-0.0215,-0.0244,-0.0244,-0.0244,0,0,-0.0662,-0.0673,-0.064,-0.0651,-0.0642,-0.0602,-0.0589,-0.0567,-0.053,-0.0514,-0.047,-0.0423,-0.0379,-0.0352,-0.0316,-0.0283,-0.0244,-0.0271,-0.0274,-0.0277,-0.0278,-0.022,-0.0218,-0.0244,-0.0244,-0.0244,0,0,-0.0648,-0.0627,-0.0615,-0.0628,-0.0603,-0.056,-0.056,-0.0534,-0.05,-0.0495,-0.0437,-0.0422,-0.0388,-0.0355,-0.0361,-0.0306,-0.0291,-0.0289,-0.0327,-0.033,-0.0333,-0.0344,-0.0322,0,0,0,0,0,-0.0611,-0.0631,-0.0621,-0.0618,-0.0591,-0.0569,-0.0562,-0.0528,-0.0512,-0.0513,-0.0467,-0.0439,-0.0347,-0.035,-0.0338,-0.0331,-0.0243,-0.0243,-0.0244,-0.0284,-0.0288,-0.0291,0,0,0,0,0,0,-0.061,-0.0609,-0.062,-0.0582,-0.0574,-0.0568,-0.0537,-0.0528,-0.0512,-0.0508,-0.0448,-0.0437,-0.0399,-0.0354,-0.0343,-0.0337,-0.0326,-0.0243,-0.0243,-0.0244,-0.0286,-0.0289,-0.0291,0,0,0,0,0,-0.0609,-0.0608,-0.0579,-0.058,-0.0574,-0.0531,-0.0537,-0.0529,-0.0516,-0.0456,-0.0445,-0.0492,-0.04,-0.0388,-0.0347,-0.0343,-0.0333,-0.0329,-0.0243,-0.0243,-0.0244,-0.0287,0,0,0,0,0,0,-0.0608,-0.0595,-0.0576,-0.0572,-0.0577,-0.053,-0.0525,-0.0531,-0.0465,-0.0454,-0.0497,-0.0495,-0.0401,-0.0391,-0.0382,-0.0348,-0.0339,-0.0335,-0.0332,-0.0243,-0.0244,-0.0244,0,0,0,0,0,0,-0.0595,-0.0592,-0.0574,-0.0573,-0.0568,-0.053,-0.0525,-0.0488,-0.0464,-0.0509,-0.0505,-0.0497,-0.0406,-0.0393,-0.0386,-0.0329,-0.0343,-0.0339,-0.0337,-0.0335,-0.0243,-0.0244,0,0,0,0,0,0,-0.0592,-0.0589,-0.0574,-0.057,-0.0566,-0.0513,-0.0494,-0.0463,-0.048,-0.0512,-0.0478,-0.0478,-0.0409,-0.0401,-0.0389,-0.0336,-0.0331,-0.0343,-0.034,-0.0339,-0.0337,0,0,0,0,0,0,0,-0.059,-0.0625,-0.0603,-0.0568,-0.0564,-0.053,-0.0529,-0.0528,-0.048,-0.0479,-0.0478,-0.0478,-0.0364,-0.036,-0.0356,-0.0341,0,0,-0.0343,-0.0341,0,0,0,0,0,0,0,0,-0.0624,-0.0625,-0.0602,-0.0601,-0.0601,-0.053,-0.0529,-0.0528,-0.0479,-0.0479,-0.0479,-0.0478,-0.0363,-0.036,-0.0356,0,0,0,0,0,0,0,0,0,0,0,0,0,0,0,-0.0602,-0.0602,0,-0.053,-0.0529,-0.0528,-0.0479,-0.0479,-0.0479,-0.0478,-0.0362,-0.0359,-0.0357,0,0,0,0,0,0,0,0,0,0,0,0,0,0,0,0,0,0,0,0,0,0,0,0,0,0,0,0,0,0,0,0,0,0,0,0,0,0,0,0,0,0,0,0,0,0,0,0,0,0,0,0,0,0,0,0,0,0,0,0,0,0,0,0,0,0,0,0,0]}]],[[{"header":{"parameterUnit":"kt","parameterCategory":2,"dx":1,"dy":1,"la1":30.253999710083008,"la2":30.299108505249023,"lo1":-89.0895004272461,"lo2":-89.04439544677734,"nx":28,"ny":28,"refTime":"2022-10-10T21:00:00:Z","depth":"4","parameterNumber":2,"parameterNumberName":"U-component_of_CURRENTS"},"data":[-0.1545,-0.1576,-0.1574,-0.1486,-0.146,-0.1499,-0.1543,-0.1619,-0.1533,-0.1641,-0.1571,-0.167,-0.1576,-0.1675,-0.1482,-0.149,-0.1548,-0.1605,-0.16,-0.1789,-0.1813,-0.1833,-0.1829,0,0,0,0,0,-0.1611,-0.1599,-0.1638,-0.1665,-0.1739,-0.1766,-0.1874,-0.1943,-0.2041,-0.1863,-0.1916,-0.1798,-0.1664,-0.1669,-0.1537,-0.1737,-0.1762,-0.1582,-0.1739,-0.1804,-0.183,-0.1817,0,0,0,0,0,0,-0.1706,-0.1719,-0.1798,-0.1847,-0.1934,-0.1917,-0.1988,-0.1968,-0.1996,-0.2069,-0.1993,-0.1967,-0.2019,-0.1886,-0.1819,-0.1746,-0.1726,-0.1684,-0.1714,-0.174,-0.1706,-0.1661,-0.1354,0,0,0,0,0,-0.1785,-0.186,-0.1912,-0.1996,-0.2067,-0.2125,-0.2198,-0.2191,-0.2287,-0.242,-0.2263,-0.2188,-0.209,-0.2024,-0.1957,-0.1892,-0.2113,-0.2001,-0.2015,-0.206,-0.2051,-0.2046,-0.2067,-0.1928,-0.1931,-0.1933,-0.1934,0,-0.1899,-0.1921,-0.207,-0.2111,-0.2174,-0.2261,-0.2312,-0.244,-0.246,-0.2517,-0.249,-0.2471,-0.2465,-0.2202,-0.2252,-0.2145,-0.2121,-0.2068,-0.2117,-0.2093,-0.2079,-0.2095,-0.2109,-0.1955,-0.1953,-0.1952,-0.195,0,-0.1959,-0.2045,-0.2103,-0.2229,-0.2274,-0.2316,-0.2445,-0.2477,-0.2574,-0.2591,-0.2611,-0.2658,-0.2578,-0.2587,-0.2518,-0.2435,-0.2329,-0.2246,-0.2491,-0.2479,-0.2143,-0.2149,-0.1989,-0.1981,-0.1975,-0.197,-0.1965,0,-0.2068,-0.2106,-0.2234,-0.2252,-0.2312,-0.24,-0.2463,-0.2527,-0.2609,-0.262,-0.2709,-0.2687,-0.2732,-0.2691,-0.2654,-0.2489,-0.2579,-0.2377,-0.2343,-0.2593,-0.2597,-0.2557,-0.2557,-0.2559,-0.256,-0.256,-0.2561,0,-0.2128,-0.2219,-0.2259,-0.2288,-0.2392,-0.2435,-0.2493,-0.2573,-0.2615,-0.2685,-0.2716,-0.2732,-0.2739,-0.2708,-0.2666,-0.269,-0.2599,-0.2622,-0.2405,-0.2392,-0.2561,-0.2561,-0.2562,-0.2562,-0.2562,-0.2562,-0.2563,0,-0.2207,-0.2247,-0.2298,-0.238,-0.24,-0.2449,-0.2524,-0.2575,-0.2643,-0.2684,-0.2717,-0.2739,-0.2743,-0.2748,-0.2703,-0.273,-0.2688,-0.2665,-0.2661,-0.2452,-0.2429,-0.2559,-0.2602,-0.2603,-0.2604,-0.2604,-0.2605,0,-0.2231,-0.228,-0.2326,-0.2383,-0.2408,-0.2474,-0.2523,-0.2577,-0.2629,-0.2675,-0.2695,-0.273,-0.2735,-0.2752,-0.2743,-0.2725,-0.2696,-0.2732,-0.263,-0.2626,-0.2438,-0.243,-0.2712,-0.2616,-0.2615,-0.2614,-0.2613,0,-0.2234,-0.2315,-0.2324,-0.2347,-0.2418,-0.2447,-0.251,-0.2554,-0.2585,-0.2649,-0.2674,-0.2718,-0.2726,-0.2725,-0.2727,-0.2715,-0.2708,-0.2703,-0.2701,-0.2642,-0.2651,-0.2466,-0.2442,-0.2714,-0.2714,-0.2714,-0.262,0,-0.2253,-0.2294,-0.2318,-0.2358,-0.2398,-0.2437,-0.248,-0.2531,-0.2572,-0.2588,-0.2644,-0.2663,-0.2677,-0.2701,-0.2692,-0.2704,-0.2684,-0.2681,-0.2622,-0.267,-0.2625,-0.262,-0.2666,-0.2665,-0.2664,-0.2663,0,0,-0.2231,-0.2258,-0.2295,-0.2323,-0.2347,-0.2387,-0.2415,-0.2449,-0.2501,-0.2517,-0.2537,-0.2589,-0.2598,-0.261,-0.2637,-0.2655,-0.2631,-0.2626,-0.2663,-0.2663,-0.2663,-0.2622,-0.2618,-0.2661,-0.2661,-0.266,-0.266,0,-0.2211,-0.2252,-0.2278,-0.2307,-0.235,-0.2362,-0.2387,-0.2423,-0.2445,-0.2505,-0.2493,-0.2527,-0.2574,-0.256,-0.2559,-0.2638,-0.2585,-0.2661,-0.2675,-0.2655,-0.2657,-0.2658,-0.2618,-0.2615,-0.2658,-0.2658,-0.2658,0,-0.2182,-0.22,-0.2221,-0.2265,-0.2285,-0.2314,-0.2307,-0.2355,-0.238,-0.2365,-0.2422,-0.244,-0.2437,-0.2481,-0.2506,-0.2479,-0.2527,-0.2538,-0.2544,-0.252,-0.2496,-0.2499,-0.2502,-0.2454,-0.2453,-0.2453,0,0,-0.2163,-0.2196,-0.2219,-0.2259,-0.2277,-0.2294,-0.2316,-0.2326,-0.2349,-0.2365,-0.2379,-0.2395,-0.2413,-0.2428,-0.2447,-0.2491,-0.245,-0.2513,-0.2523,-0.2531,-0.2512,-0.249,-0.2494,-0.245,-0.245,-0.245,0,0,-0.2148,-0.2175,-0.218,-0.2224,-0.2253,-0.2261,-0.2293,-0.2301,-0.2335,-0.2344,-0.2328,-0.2332,-0.2391,-0.2383,-0.2353,-0.2423,-0.2384,-0.239,-0.2422,-0.2434,-0.2443,-0.2412,-0.2299,0,0,0,0,0,-0.2134,-0.2171,-0.2175,-0.2184,-0.2223,-0.2259,-0.2265,-0.2274,-0.2275,-0.2304,-0.2318,-0.2292,-0.2361,-0.2334,-0.2338,-0.2367,-0.2418,-0.2424,-0.2429,-0.2481,-0.2494,-0.2504,0,0,0,0,0,0,-0.2137,-0.2147,-0.2174,-0.2183,-0.2192,-0.2257,-0.2227,-0.223,-0.2272,-0.2272,-0.229,-0.229,-0.2271,-0.2329,-0.2334,-0.2362,-0.2297,-0.242,-0.2425,-0.2429,-0.2485,-0.2496,-0.2505,0,0,0,0,0,-0.214,-0.2148,-0.221,-0.2182,-0.219,-0.2211,-0.2226,-0.2228,-0.2266,-0.2256,-0.2258,-0.2278,-0.227,-0.2275,-0.2332,-0.2361,-0.2294,-0.2296,-0.2423,-0.2427,-0.2431,-0.249,0,0,0,0,0,0,-0.2142,-0.2144,-0.2212,-0.2215,-0.2178,-0.2208,-0.2213,-0.2227,-0.2247,-0.225,-0.2239,-0.2238,-0.2271,-0.2274,-0.2278,-0.2361,-0.2291,-0.2293,-0.2294,-0.2426,-0.2429,-0.2432,0,0,0,0,0,0,-0.214,-0.2146,-0.2213,-0.2207,-0.2209,-0.2206,-0.2211,-0.2231,-0.2247,-0.2228,-0.2229,-0.2238,-0.2269,-0.2274,-0.2277,-0.2307,-0.2289,-0.2291,-0.2292,-0.2293,-0.2429,-0.2431,0,0,0,0,0,0,-0.2142,-0.2148,-0.2206,-0.2208,-0.221,-0.2239,-0.2223,-0.2263,-0.2242,-0.2227,-0.2241,-0.2241,-0.2269,-0.2271,-0.2276,-0.2305,-0.2306,-0.2289,-0.229,-0.2291,-0.2292,0,0,0,0,0,0,0,-0.2145,-0.2109,-0.22,-0.2208,-0.221,-0.2242,-0.2242,-0.2242,-0.2242,-0.2242,-0.2241,-0.2241,-0.2279,-0.2281,-0.2283,-0.2303,0,0,-0.2289,-0.229,0,0,0,0,0,0,0,0,-0.2107,-0.2108,-0.22,-0.2201,-0.2201,-0.2242,-0.2242,-0.2242,-0.2242,-0.2242,-0.2241,-0.2241,-0.228,-0.2281,-0.2283,0,0,0,0,0,0,0,0,0,0,0,0,0,0,0,-0.22,-0.2201,0,-0.2242,-0.2242,-0.2242,-0.2242,-0.2242,-0.2241,-0.2241,-0.228,-0.2282,-0.2283,0,0,0,0,0,0,0,0,0,0,0,0,0,0,0,0,0,0,0,0,0,0,0,0,0,0,0,0,0,0,0,0,0,0,0,0,0,0,0,0,0,0,0,0,0,0,0,0,0,0,0,0,0,0,0,0,0,0,0,0,0,0,0,0,0,0,0,0,0]}],[{"header":{"parameterUnit":"kt","parameterCategory":2,"dx":1,"dy":1,"la1":30.253999710083008,"la2":30.299108505249023,"lo1":-89.0895004272461,"lo2":-89.04439544677734,"nx":28,"ny":28,"refTime":"2022-10-10T21:00:00:Z","depth":"4","parameterNumber":3,"parameterNumberName":"V-component_of_CURRENTS"},"data":[-0.097,-0.1057,-0.11,-0.1207,-0.1272,-0.135,-0.1365,-0.1328,-0.1268,-0.1188,-0.1046,-0.0936,-0.0679,-0.0791,-0.0418,-0.0366,-0.0269,-0.0024,-0.0021,0.013,0.0131,0.0132,0.0045,0,0,0,0,0,-0.0957,-0.1017,-0.1101,-0.1189,-0.1272,-0.131,-0.1331,-0.1313,-0.1252,-0.1185,-0.1119,-0.0962,-0.0694,-0.0576,-0.0414,-0.0353,-0.0108,-0.0161,-0.0039,0.013,0.0131,0.0047,0,0,0,0,0,0,-0.0943,-0.0992,-0.1068,-0.1143,-0.1224,-0.1275,-0.1277,-0.1248,-0.122,-0.1102,-0.1075,-0.0879,-0.0751,-0.0503,-0.0336,-0.0168,-0.0123,-0.0064,-0.0053,-0.0049,-0.0145,-0.0231,-0.0193,0,0,0,0,0,-0.0921,-0.0958,-0.1002,-0.1103,-0.1154,-0.1196,-0.1216,-0.1213,-0.115,-0.1104,-0.0995,-0.0843,-0.0676,-0.0457,-0.0271,-0.0099,0.0049,0.0095,0.0097,0.0086,0.0042,0.0055,0.0046,0.0135,0.0135,0.0136,0.0136,0,-0.0891,-0.0924,-0.0995,-0.1039,-0.1058,-0.1093,-0.1115,-0.1073,-0.1062,-0.0974,-0.0958,-0.0816,-0.0709,-0.0437,-0.0256,-0.0013,0.0015,0.0097,0.0084,0.0042,0.0057,0.0047,0.0038,0.0136,0.0136,0.0136,0.0136,0,-0.0874,-0.0894,-0.0942,-0.0967,-0.0981,-0.1009,-0.1011,-0.101,-0.0954,-0.0922,-0.0901,-0.076,-0.0612,-0.0432,-0.0224,-0.013,0.0019,0.0062,0.0002,0.0021,0.0045,0.0035,0.0138,0.0137,0.0137,0.0137,0.0137,0,-0.084,-0.0869,-0.0896,-0.0917,-0.0955,-0.0925,-0.0938,-0.0907,-0.0855,-0.0834,-0.0727,-0.0683,-0.0499,-0.0381,-0.0258,-0.0114,-0.0082,-0.0018,0.0007,-0.0027,-0.0036,0.0002,-0.0004,0.005,0.0049,0.0048,0.0047,0,-0.08,-0.0827,-0.0864,-0.0868,-0.0864,-0.0869,-0.0861,-0.0808,-0.0794,-0.0715,-0.069,-0.0566,-0.0511,-0.0386,-0.0257,-0.026,-0.0087,-0.0069,-0.0022,-0.0023,-0.0005,-0.0011,0.0046,0.0046,0.0046,0.0046,0.0045,0,-0.0755,-0.0778,-0.0819,-0.0816,-0.0818,-0.0826,-0.0799,-0.0786,-0.0714,-0.0681,-0.0609,-0.0549,-0.0456,-0.0433,-0.0272,-0.0315,-0.0235,-0.0168,-0.0161,-0.0174,-0.0163,-0.0114,-0.009,-0.0092,-0.0093,-0.0094,-0.0096,0,-0.0711,-0.0752,-0.0736,-0.0763,-0.0778,-0.074,-0.0733,-0.0701,-0.0664,-0.0626,-0.0545,-0.0506,-0.0468,-0.0443,-0.0379,-0.0297,-0.0238,-0.0299,-0.015,-0.0146,-0.0178,-0.016,-0.0233,-0.0116,-0.0114,-0.0112,-0.011,0,-0.067,-0.0679,-0.0684,-0.0694,-0.0679,-0.0678,-0.0669,-0.0643,-0.0631,-0.059,-0.0559,-0.0497,-0.0457,-0.0426,-0.0379,-0.0324,-0.0266,-0.0303,-0.0299,-0.0257,-0.0142,-0.018,-0.0171,-0.0242,-0.024,-0.0239,-0.0125,0,-0.0622,-0.0637,-0.0647,-0.0654,-0.0647,-0.0655,-0.0625,-0.0616,-0.0597,-0.0567,-0.0523,-0.0468,-0.0417,-0.0402,-0.0377,-0.0326,-0.0314,-0.0298,-0.0272,-0.0271,-0.0223,-0.0212,-0.033,-0.033,-0.0329,-0.0328,0,0,-0.058,-0.06,-0.0584,-0.0596,-0.0594,-0.0562,-0.0575,-0.0557,-0.0529,-0.0512,-0.0508,-0.0432,-0.0398,-0.0345,-0.035,-0.0335,-0.0301,-0.0329,-0.0282,-0.0277,-0.0272,-0.0226,-0.0216,-0.0327,-0.0327,-0.0327,-0.0327,0,-0.056,-0.056,-0.0581,-0.0574,-0.0564,-0.0546,-0.0549,-0.0526,-0.0515,-0.0501,-0.0465,-0.0429,-0.0394,-0.0352,-0.0328,-0.033,-0.0286,-0.0331,-0.0339,-0.0279,-0.0275,-0.0271,-0.0226,-0.0217,-0.0325,-0.0326,-0.0326,0,-0.0528,-0.0525,-0.0534,-0.0528,-0.0518,-0.0519,-0.0492,-0.0491,-0.0489,-0.044,-0.0433,-0.0401,-0.0357,-0.0335,-0.0323,-0.0312,-0.0263,-0.0292,-0.0294,-0.029,-0.0226,-0.0222,-0.0219,-0.0259,-0.0259,-0.0259,0,0,-0.0514,-0.0528,-0.0508,-0.0522,-0.0518,-0.0494,-0.0489,-0.0478,-0.0455,-0.0448,-0.0419,-0.0388,-0.0358,-0.0339,-0.0315,-0.0291,-0.0252,-0.0285,-0.0288,-0.0291,-0.0289,-0.0226,-0.0223,-0.0259,-0.0259,-0.0259,0,0,-0.0503,-0.0494,-0.049,-0.0504,-0.0491,-0.0463,-0.0468,-0.0453,-0.0435,-0.0435,-0.0393,-0.0383,-0.0365,-0.0338,-0.034,-0.0306,-0.0292,-0.0291,-0.0323,-0.0326,-0.0329,-0.0333,-0.031,0,0,0,0,0,-0.0479,-0.0495,-0.0492,-0.0492,-0.048,-0.0466,-0.0463,-0.0447,-0.044,-0.0445,-0.0415,-0.0394,-0.0333,-0.0333,-0.0323,-0.0322,-0.0256,-0.0256,-0.0257,-0.0293,-0.0297,-0.03,0,0,0,0,0,0,-0.0478,-0.0479,-0.0491,-0.0466,-0.0463,-0.0466,-0.0448,-0.0444,-0.0439,-0.0438,-0.04,-0.0392,-0.0364,-0.0335,-0.0327,-0.0326,-0.0312,-0.0256,-0.0256,-0.0257,-0.0294,-0.0297,-0.03,0,0,0,0,0,-0.0478,-0.0478,-0.0469,-0.0465,-0.0462,-0.0442,-0.0448,-0.0444,-0.0443,-0.04,-0.0393,-0.0433,-0.0365,-0.0356,-0.033,-0.0331,-0.0318,-0.0315,-0.0256,-0.0257,-0.0257,-0.0296,0,0,0,0,0,0,-0.0478,-0.047,-0.0467,-0.0464,-0.0467,-0.0441,-0.0439,-0.0445,-0.0404,-0.0398,-0.043,-0.0429,-0.0365,-0.0358,-0.0351,-0.0335,-0.0322,-0.0319,-0.0317,-0.0256,-0.0257,-0.0257,0,0,0,0,0,0,-0.047,-0.0469,-0.0466,-0.0468,-0.0466,-0.0441,-0.0439,-0.0409,-0.0403,-0.0436,-0.0434,-0.0429,-0.0367,-0.0359,-0.0354,-0.0307,-0.0326,-0.0323,-0.0321,-0.032,-0.0257,-0.0257,0,0,0,0,0,0,-0.0468,-0.0467,-0.0469,-0.0467,-0.0465,-0.0436,-0.0412,-0.0396,-0.042,-0.0437,-0.042,-0.042,-0.0368,-0.0363,-0.0356,-0.0312,-0.0309,-0.0326,-0.0324,-0.0322,-0.0321,0,0,0,0,0,0,0,-0.0467,-0.0484,-0.0482,-0.0466,-0.0464,-0.0441,-0.0441,-0.044,-0.042,-0.042,-0.042,-0.042,-0.0342,-0.0339,-0.0336,-0.0316,0,0,-0.0326,-0.0324,0,0,0,0,0,0,0,0,-0.0484,-0.0484,-0.0482,-0.0481,-0.0481,-0.0441,-0.0441,-0.044,-0.042,-0.042,-0.042,-0.042,-0.0341,-0.0339,-0.0336,0,0,0,0,0,0,0,0,0,0,0,0,0,0,0,-0.0482,-0.0481,0,-0.0441,-0.0441,-0.044,-0.042,-0.042,-0.042,-0.042,-0.034,-0.0338,-0.0336,0,0,0,0,0,0,0,0,0,0,0,0,0,0,0,0,0,0,0,0,0,0,0,0,0,0,0,0,0,0,0,0,0,0,0,0,0,0,0,0,0,0,0,0,0,0,0,0,0,0,0,0,0,0,0,0,0,0,0,0,0,0,0,0,0,0,0,0,0]}]]]